Total_Precipitation_Accumulation
1.01 1.10 0.93 0.87 0.79 1.09 1.43 1.59 1.56 1.70 1.79 1.73 1.42 1.21 1.13 0.97 0.81 0.81 0.92 1.06 1.17 1.08 1.06 1.00 0.81 0.77 0.75 0.67 0.65 0.66 0.64 0.63 0.56 0.46 0.40 0.36 0.30 0.20 0.12 0.11 0.12 0.14 0.12
1.34 1.39 1.33 1.24 1.04 1.18 1.49 1.82 1.86 2.01 1.91 1.89 1.43 1.19 1.13 1.12 0.97 0.86 0.85 0.99 1.05 0.99 0.89 0.92 0.93 0.88 0.82 0.73 0.67 0.61 0.58 0.58 0.56 0.48 0.40 0.35 0.31 0.28 0.24 0.19 0.17 0.18 0.15
1.76 1.93 1.80 1.45 1.27 1.44 1.61 1.66 1.77 2.19 1.98 1.87 1.63 1.57 1.46 1.27 1.10 0.96 0.92 0.93 0.87 0.86 0.74 0.72 0.81 0.85 0.85 0.82 0.79 0.69 0.61 0.53 0.47 0.41 0.37 0.34 0.28 0.24 0.27 0.27 0.26 0.26 0.21
1.66 1.83 1.56 1.24 1.38 1.64 1.76 1.66 1.68 2.02 2.03 1.99 1.91 1.75 1.57 1.33 1.11 1.03 0.97 0.85 0.75 0.57 0.54 0.61 0.71 0.77 0.88 0.90 0.91 0.94 0.82 0.59 0.44 0.36 0.32 0.31 0.28 0.20 0.16 0.20 0.26 0.31 0.25
1.06 1.18 1.01 0.94 1.17 1.42 1.41 1.24 1.35 1.61 1.69 1.73 1.67 1.42 1.20 0.98 0.82 0.80 0.76 0.66 0.67 0.59 0.55 0.52 0.60 0.67 0.80 0.98 1.04 1.05 1.00 0.76 0.52 0.43 0.39 0.36 0.34 0.25 0.16 0.15 0.23 0.28 0.26
0.75 0.83 0.82 0.78 0.86 0.90 0.91 1.06 1.19 1.33 1.22 1.28 1.20 0.98 0.91 0.76 0.67 0.62 0.49 0.44 0.46 0.42 0.39 0.46 0.49 0.46 0.57 0.73 0.85 0.90 0.91 0.84 0.63 0.54 0.49 0.47 0.50 0.38 0.22 0.19 0.22 0.21 0.21
0.64 0.64 0.61 0.62 0.68 0.67 0.66 0.80 0.92 0.92 0.75 0.90 0.96 0.75 0.59 0.50 0.46 0.42 0.34 0.29 0.26 0.25 0.26 0.34 0.37 0.35 0.34 0.36 0.50 0.66 0.79 0.83 0.77 0.64 0.55 0.54 0.57 0.47 0.31 0.25 0.21 0.15 0.17
0.54 0.53 0.50 0.48 0.48 0.51 0.52 0.57 0.68 0.68 0.60 0.71 0.79 0.71 0.50 0.41 0.34 0.23 0.21 0.17 0.14 0.18 0.21 0.27 0.35 0.40 0.39 0.40 0.43 0.49 0.68 0.80 0.89 0.87 0.75 0.66 0.63 0.51 0.40 0.36 0.29 0.21 0.18
0.33 0.33 0.32 0.32 0.34 0.38 0.41 0.47 0.54 0.56 0.50 0.49 0.58 0.65 0.46 0.31 0.27 0.23 0.20 0.18 0.17 0.17 0.19 0.29 0.37 0.45 0.53 0.59 0.58 0.51 0.51 0.61 0.84 1.01 1.01 0.80 0.55 0.42 0.40 0.45 0.44 0.33 0.24
0.23 0.23 0.21 0.21 0.21 0.25 0.31 0.34 0.42 0.52 0.50 0.41 0.43 0.50 0.47 0.39 0.31 0.25 0.24 0.20 0.21 0.19 0.22 0.28 0.38 0.48 0.54 0.66 0.71 0.60 0.48 0.50 0.70 0.89 0.95 0.89 0.64 0.44 0.41 0.53 0.65 0.59 0.40
0.23 0.23 0.22 0.20 0.20 0.20 0.23 0.27 0.34 0.43 0.50 0.45 0.41 0.47 0.53 0.48 0.36 0.29 0.23 0.23 0.27 0.21 0.25 0.35 0.44 0.51 0.54 0.68 0.88 0.82 0.76 0.63 0.59 0.64 0.71 0.77 0.78 0.71 0.66 0.71 0.89 0.99 0.87
0.25 0.25 0.25 0.26 0.26 0.25 0.25 0.25 0.26 0.31 0.42 0.50 0.50 0.50 0.53 0.51 0.38 0.32 0.25 0.22 0.27 0.23 0.35 0.50 0.54 0.58 0.60 0.76 0.83 0.81 0.71 0.58 0.47 0.41 0.44 0.48 0.53 0.57 0.59 0.71 0.94 1.17 1.31
0.20 0.22 0.23 0.24 0.27 0.29 0.29 0.27 0.27 0.27 0.34 0.43 0.46 0.50 0.50 0.49 0.52 0.50 0.43 0.35 0.36 0.37 0.48 0.57 0.64 0.66 0.65 0.75 0.75 0.68 0.53 0.38 0.27 0.23 0.25 0.29 0.33 0.42 0.53 0.65 0.79 0.97 1.17
0.19 0.20 0.20 0.19 0.21 0.26 0.31 0.33 0.31 0.31 0.34 0.36 0.37 0.50 0.55 0.50 0.59 0.62 0.63 0.64 0.55 0.54 0.66 0.70 0.75 0.76 0.84 0.83 0.73 0.60 0.44 0.31 0.21 0.17 0.15 0.16 0.18 0.21 0.30 0.43 0.60 0.78 0.95
0.21 0.20 0.20 0.20 0.20 0.22 0.26 0.30 0.31 0.33 0.36 0.36 0.40 0.49 0.57 0.64 0.67 0.63 0.72 0.77 0.75 0.67 0.73 0.79 0.68 0.63 0.68 0.64 0.53 0.43 0.29 0.23 0.18 0.13 0.11 0.11 0.11 0.12 0.16 0.19 0.23 0.29 0.37
0.18 0.19 0.19 0.18 0.18 0.20 0.21 0.24 0.26 0.33 0.39 0.45 0.51 0.56 0.59 0.66 0.75 0.68 0.73 0.78 0.77 0.78 0.81 0.74 0.63 0.61 0.57 0.42 0.32 0.26 0.17 0.15 0.12 0.10 0.09 0.09 0.10 0.10 0.11 0.14 0.15 0.17 0.20
0.12 0.13 0.15 0.16 0.18 0.20 0.23 0.28 0.31 0.36 0.46 0.58 0.67 0.70 0.73 0.75 0.78 0.77 0.83 0.84 0.76 0.81 0.77 0.63 0.67 0.71 0.59 0.40 0.24 0.18 0.12 0.10 0.08 0.09 0.10 0.10 0.10 0.09 0.09 0.11 0.12 0.14 0.15
0.11 0.11 0.12 0.13 0.13 0.14 0.19 0.29 0.40 0.41 0.44 0.52 0.74 0.96 0.98 0.98 0.89 0.82 0.90 0.88 0.84 0.94 0.87 0.73 0.80 0.78 0.71 0.53 0.35 0.23 0.12 0.07 0.04 0.07 0.08 0.09 0.09 0.07 0.06 0.06 0.07 0.08 0.08
0.11 0.11 0.12 0.12 0.11 0.10 0.12 0.20 0.33 0.38 0.46 0.60 0.76 0.89 1.01 1.12 1.02 0.92 0.89 0.90 0.93 1.01 0.96 0.84 0.84 0.93 0.90 0.67 0.43 0.24 0.13 0.08 0.04 0.05 0.05 0.05 0.06 0.06 0.06 0.05 0.04 0.04 0.04
0.09 0.11 0.13 0.13 0.13 0.11 0.11 0.16 0.24 0.31 0.44 0.62 0.68 0.62 0.74 0.99 1.09 1.01 0.90 0.85 0.90 0.94 0.93 0.93 0.97 1.05 1.01 0.86 0.58 0.31 0.18 0.10 0.05 0.03 0.04 0.03 0.04 0.04 0.04 0.04 0.04 0.05 0.05
0.08 0.11 0.14 0.15 0.14 0.12 0.10 0.17 0.26 0.22 0.26 0.35 0.38 0.36 0.42 0.61 0.89 1.05 1.01 0.90 0.88 0.85 0.86 0.93 1.00 1.05 0.98 0.89 0.68 0.41 0.23 0.13 0.08 0.04 0.03 0.02 0.02 0.02 0.01 0.02 0.02 0.02 0.02
0.11 0.16 0.19 0.19 0.19 0.13 0.11 0.13 0.15 0.17 0.20 0.23 0.24 0.26 0.26 0.29 0.42 0.65 0.86 0.97 1.01 0.93 0.86 0.89 1.01 1.03 0.92 0.80 0.67 0.46 0.25 0.13 0.10 0.09 0.06 0.06 0.04 0.03 0.01 0.00 0.01 0.01 0.01
0.16 0.21 0.24 0.26 0.27 0.26 0.18 0.12 0.09 0.12 0.16 0.20 0.23 0.25 0.19 0.17 0.24 0.31 0.45 0.61 0.76 0.83 0.85 0.89 0.94 1.01 1.01 0.93 0.75 0.53 0.32 0.18 0.10 0.07 0.07 0.07 0.04 0.02 0.01 0.01 0.02 0.01 0.01
0.22 0.26 0.29 0.32 0.36 0.35 0.26 0.17 0.13 0.12 0.17 0.21 0.25 0.25 0.22 0.20 0.22 0.27 0.33 0.36 0.43 0.52 0.58 0.64 0.76 0.91 1.04 1.05 0.93 0.75 0.53 0.31 0.16 0.09 0.05 0.06 0.05 0.04 0.02 0.02 0.02 0.01 0.01
0.30 0.31 0.32 0.37 0.41 0.43 0.33 0.21 0.18 0.19 0.24 0.25 0.26 0.26 0.26 0.24 0.22 0.21 0.28 0.31 0.33 0.38 0.44 0.53 0.61 0.78 1.00 1.10 1.03 0.84 0.59 0.36 0.23 0.13 0.05 0.04 0.05 0.05 0.06 0.04 0.01 0.01 0.01
0.39 0.39 0.37 0.40 0.45 0.50 0.44 0.26 0.21 0.25 0.32 0.33 0.37 0.37 0.31 0.29 0.26 0.19 0.23 0.27 0.27 0.31 0.36 0.40 0.48 0.57 0.69 0.86 1.00 0.79 0.54 0.35 0.24 0.15 0.06 0.02 0.03 0.03 0.05 0.03 0.01 0.00 0.00